TimeMDT,TemperatureF,Dew PointF,Humidity,Sea Level PressureIn,VisibilityMPH,Wind Direction,Wind SpeedMPH,Gust SpeedMPH,PrecipitationIn,Events,Conditions,WindDirDegrees,DateUTC
12:53 AM,50.0,39.9,68,29.83,10.0,SSW,8.1,-,N/A,,Overcast,200,2013-04-05 06:53:00
1:53 AM,52.0,42.1,69,29.85,10.0,SSW,9.2,-,0.00,Rain,Light Rain,210,2013-04-05 07:53:00
2:53 AM,46.9,44.1,90,29.87,10.0,SSW,10.4,-,0.03,Rain,Light Rain,200,2013-04-05 08:53:00
3:53 AM,48.0,42.1,80,29.82,10.0,South,16.1,-,0.00,Rain,Light Rain,170,2013-04-05 09:53:00
4:53 AM,48.9,39.9,71,29.81,10.0,South,12.7,-,0.01,,Overcast,190,2013-04-05 10:53:00
5:53 AM,48.9,39.9,71,29.81,10.0,SSW,17.3,23.0,N/A,,Mostly Cloudy,200,2013-04-05 11:53:00
6:53 AM,48.0,39.9,74,29.83,10.0,SSW,15.0,-,0.00,Rain,Light Rain,210,2013-04-05 12:53:00
7:53 AM,46.9,41.0,80,29.86,10.0,SW,18.4,23.0,0.00,,Overcast,220,2013-04-05 13:53:00
8:53 AM,48.0,39.9,74,29.88,10.0,SW,17.3,-,N/A,,Mostly Cloudy,220,2013-04-05 14:53:00
9:53 AM,48.9,39.9,71,29.90,10.0,SW,26.5,34.5,N/A,,Scattered Clouds,230,2013-04-05 15:53:00
10:53 AM,51.1,39.0,63,29.93,10.0,WSW,28.8,36.8,N/A,,Scattered Clouds,240,2013-04-05 16:53:00
11:53 AM,53.1,37.0,55,29.94,10.0,WSW,25.3,36.8,N/A,,Mostly Cloudy,250,2013-04-05 17:53:00
12:53 PM,52.0,34.0,50,29.93,10.0,WSW,28.8,39.1,N/A,,Mostly Cloudy,250,2013-04-05 18:53:00
1:53 PM,53.1,32.0,45,29.91,10.0,SW,27.6,38.0,N/A,,Mostly Cloudy,230,2013-04-05 19:53:00
2:53 PM,57.9,28.9,33,29.90,10.0,West,28.8,35.7,N/A,,Mostly Cloudy,260,2013-04-05 20:53:00
3:53 PM,59.0,28.0,31,29.89,10.0,WSW,29.9,38.0,N/A,,Mostly Cloudy,250,2013-04-05 21:53:00
4:53 PM,59.0,27.0,29,29.88,10.0,WSW,28.8,38.0,N/A,,Scattered Clouds,250,2013-04-05 22:53:00
5:53 PM,57.0,27.0,32,29.89,10.0,WSW,26.5,35.7,N/A,,Scattered Clouds,250,2013-04-05 23:53:00
6:53 PM,55.0,28.0,35,29.90,10.0,WSW,21.9,-,N/A,,Scattered Clouds,250,2013-04-06 00:53:00
7:53 PM,50.0,28.9,44,29.92,10.0,WSW,16.1,-,N/A,,Scattered Clouds,250,2013-04-06 01:53:00
8:53 PM,46.9,28.9,50,29.95,10.0,SSW,11.5,-,N/A,,Clear,200,2013-04-06 02:53:00
9:53 PM,48.0,28.9,48,29.96,10.0,SSW,16.1,-,N/A,,Clear,210,2013-04-06 03:53:00
10:53 PM,46.9,28.9,50,29.97,10.0,SSW,12.7,-,N/A,,Clear,210,2013-04-06 04:53:00
11:53 PM,45.0,28.9,53,29.96,10.0,SSW,11.5,-,N/A,,Clear,210,2013-04-06 05:53:00